アトラス彗星

C/2017 M4 ( ATLAS )

English version
Home page
Updated on January 20, 2022

---------------------------------------------------------------------

・ プロフィール

発見日 2017年6月21日
発見光度 18.3等
発見者 Asteroid Terrestrial-impact Last Alert System (ATLAS) Team

・ 写真集

・ 軌道要素

Epoch 2019 Feb. 6.0 TT = JDT 2458520.5
T 2019 Jan. 18.18028 TT                                 Rudenko
q   3.2518347            (2000.0)            P               Q
z  -0.0007333      Peri.  167.61975     -0.34653327     -0.32822830
 +/-0.0000004      Node    65.86759     -0.92164995     +0.29347746
e   1.0023847      Incl.  105.65753     -0.17457394     -0.89785141
From 2000 observations 2017 June 16-2021 Apr. 3, mean residual 1".0.

・ 星図

・ 光度変化

        m1 = 6.0 + 5 logΔ + 10.0 log r

---------------------------------------------------------------------

軌道要素はM.P.E.C. 2021-J28に掲載されたものです。
星図はステラナビゲータ Ver.10 (アストロアーツ) で作成したものです。
光度グラフはComet for Windowsで作成したものです。

---------------------------------------------------------------------

Copyright(C) Seiichi Yoshida (comet@aerith.net). All rights reserved.